Terminal Aerodrome Forecast
Issued by NWS

Home | Current Version | Previous Version | Text Only | Print | Product List | Glossary On
Versions: 1 2 3 4 5 6 7 8 9 10 11 12 13 14 15 16 17 18 19 20 21 22 23 24 25 26 27 28 29 30 31 32 33 34 35 36 37 38 39 40 41 42 43 44 45 46 47
000
FTUS41 KBOX 230305 AAA
TAFMHT
TAF AMD
KMHT 230305Z 2303/2324 03005KT P6SM FEW020 OVC050
     FM230600 00000KT P6SM OVC020
     FM230800 00000KT P6SM OVC008
     FM231300 04005KT P6SM BKN020
     FM231600 05006KT P6SM BKN040
     FM232100 09006KT P6SM BKN250=

USA.gov is the U.S. government's official web portal to all federal, state and local government web resources and services.